Date,TemperatureHighF,TemperatureAvgF,TemperatureLowF,DewpointHighF,DewpointAvgF,DewpointLowF,HumidityHigh,HumidityAvg,HumidityLow,PressureMaxIn,PressureMinIn,WindSpeedMaxMPH,WindSpeedAvgMPH,GustSpeedMaxMPH,PrecipitationSumIn
2012-6-5,53,52,51,53,52,50,100,99,96,29.73,29.52,0,-999,0,0.00
2012-6-6,61,55,51,53,52,49,100,90,65,29.51,29.44,0,-999,0,0.00
2012-6-7,60,55,52,57,54,52,100,97,82,29.51,29.03,0,-999,0,0.00
2012-6-8,56,53,51,55,51,46,100,93,83,29.62,29.02,0,-999,0,0.00
2012-6-9,63,54,49,51,46,39,92,76,42,29.86,29.56,0,-999,0,0.00
2012-6-10,57,53,51,52,50,42,98,87,68,29.88,29.75,0,-999,0,0.00
2012-6-11,60,55,51,52,50,47,95,84,69,29.80,29.71,0,-999,0,0.00
2012-6-12,57,54,52,51,46,38,94,75,49,29.96,29.80,0,-999,0,0.00
2012-6-13,60,54,52,53,50,46,93,84,68,30.04,29.96,0,-999,0,0.00
2012-6-14,62,55,52,53,50,46,99,84,54,30.04,29.63,0,-999,0,0.00
2012-6-15,58,54,53,53,52,49,96,91,83,29.66,29.41,0,-999,0,0.00
2012-6-16,58,55,53,54,52,48,98,90,71,0.00,40.00,0,-999,0,0.00
2012-6-17,56,53,50,50,45,-100,91,78,66,0.00,40.00,0,-999,0,0.00
2012-6-18,59,54,51,53,50,47,95,83,69,0.00,40.00,0,-999,0,0.00
2012-6-19,61,56,51,53,49,46,95,79,63,30.11,29.99,0,-999,0,0.00
2012-6-20,62,56,52,53,52,48,97,85,68,30.11,29.89,0,-999,0,0.00
2012-6-21,59,55,52,55,53,50,98,92,83,29.88,29.55,0,-999,0,0.00
2012-6-22,60,56,53,54,51,47,99,85,63,29.92,29.51,0,-999,0,0.00
2012-6-23,60,56,51,53,50,47,95,81,70,30.01,29.86,0,-999,0,0.00
2012-6-24,65,57,52,52,51,47,98,81,51,30.03,29.78,0,-999,0,0.00
2012-6-25,57,55,53,53,49,47,91,80,71,30.12,30.02,0,-999,0,0.00
2012-6-26,73,59,53,64,56,50,100,89,65,30.11,29.99,0,-999,0,0.00
2012-6-27,72,59,54,61,57,54,100,92,65,30.06,29.82,0,-999,0,0.00
2012-6-28,68,58,55,59,55,48,100,91,53,29.88,29.41,0,-999,0,0.00
2012-6-29,67,60,55,57,54,51,100,82,54,0.00,40.00,0,-999,0,0.00
2012-6-30,58,56,54,54,50,42,93,81,58,0.00,40.00,0,-999,0,0.00
2012-7-1,60,56,53,54,50,47,98,80,66,29.91,29.69,0,-999,0,0.00
2012-7-2,68,58,55,60,57,55,100,94,70,29.82,29.73,0,-999,0,0.00
2012-7-3,60,57,55,59,56,55,100,97,89,29.83,29.67,0,-999,0,0.00
2012-7-4,60,57,55,58,55,53,100,95,79,29.78,29.65,0,-999,0,0.00
2012-7-5,59,57,54,57,55,54,98,93,88,29.88,29.78,0,-999,0,0.00
2012-7-6,63,58,56,62,57,54,100,97,89,29.88,29.60,0,-999,0,0.00
2012-7-7,65,59,55,57,55,54,98,88,69,29.82,29.71,0,-999,0,0.00
2012-7-8,58,56,54,56,54,52,99,94,86,29.87,29.74,0,-999,0,0.00
2012-7-9,58,55,52,54,52,50,100,92,85,29.92,29.81,0,-999,0,0.00
2012-7-10,60,55,51,54,50,46,96,85,65,29.92,29.84,0,-999,0,0.00
2012-7-11,59,55,52,54,48,44,96,79,59,29.92,29.79,0,-999,0,0.00
2012-7-12,61,55,50,52,49,47,90,81,58,29.92,29.67,0,-999,0,0.00
2012-7-13,58,56,55,54,53,49,98,89,78,29.65,29.52,0,-999,0,0.00
2012-7-14,59,56,51,54,48,42,95,76,54,29.88,29.60,0,-999,0,0.00
2012-7-15,64,57,51,54,48,45,93,73,57,30.03,29.88,0,-999,0,0.00
2012-7-16,67,60,56,61,56,54,97,87,64,30.10,29.88,0,-999,0,0.00
2012-7-17,74,62,56,62,57,55,98,86,58,30.18,29.96,0,-999,0,0.00
2012-7-18,63,59,57,59,55,53,100,86,69,29.97,29.79,0,-999,0,0.00
2012-7-19,60,56,52,55,50,47,91,79,63,29.98,29.75,0,-999,0,0.00
2012-7-20,60,56,54,52,50,48,88,78,65,30.19,29.99,0,-999,0,0.00
2012-7-21,67,58,52,54,51,47,93,79,48,30.29,30.18,0,-999,0,0.00
2012-7-22,70,61,57,61,56,51,98,84,69,30.29,30.06,0,-999,0,0.00
2012-7-23,75,63,58,64,60,58,100,91,66,30.14,29.95,0,-999,0,0.00
2012-7-24,63,60,57,63,59,57,100,98,89,30.09,30.00,0,-999,0,0.00
2012-7-25,63,59,56,58,54,51,100,86,63,30.20,30.06,0,-999,0,0.00
2012-7-26,65,59,55,58,53,46,99,82,51,30.17,30.08,0,-999,0,0.00
2012-7-27,63,59,56,55,50,44,91,72,49,30.08,29.98,0,-999,0,0.00
2012-7-28,59,56,52,52,49,46,88,79,70,29.98,29.79,0,-999,0,0.00
2012-7-29,61,55,51,51,48,44,89,76,57,29.93,29.78,0,-999,0,0.00
2012-7-30,62,56,51,53,49,46,89,76,56,30.00,29.88,0,-999,0,0.00
2012-7-31,63,58,55,59,54,49,98,86,74,29.95,29.61,0,-999,0,0.00
2012-8-1,66,61,58,60,57,48,98,87,53,29.74,29.42,0,-999,0,0.00
2012-8-2,67,60,56,57,53,46,94,80,47,29.77,29.66,0,-999,0,0.00
2012-8-3,62,59,57,58,56,55,95,89,79,29.80,29.66,0,-999,0,0.00
2012-8-4,64,60,58,57,56,54,96,88,70,29.76,29.65,0,-999,0,0.00
2012-8-5,60,58,54,57,56,54,98,94,86,29.76,29.71,0,-999,0,0.00
2012-8-6,65,58,53,57,53,49,98,83,57,29.93,29.71,0,-999,0,0.00
2012-8-7,63,59,57,58,55,52,97,86,70,30.16,29.93,0,-999,0,0.00
2012-8-8,58,57,53,58,56,53,100,97,93,30.29,30.17,0,-999,0,0.00
2012-8-9,63,59,55,60,57,55,100,93,81,30.38,30.30,0,-999,0,0.00
2012-8-10,73,63,59,60,57,52,93,82,60,30.38,30.23,0,-999,0,0.00
2012-8-11,72,64,60,60,58,55,90,81,55,30.24,29.91,0,-999,0,0.00
2012-8-12,67,61,60,61,55,-100,97,86,61,29.96,29.70,0,-999,0,0.00
2012-8-13,67,62,59,62,60,58,99,91,76,29.80,29.50,0,-999,0,0.00
2012-8-14,68,62,59,60,59,56,98,89,69,29.82,29.71,0,-999,0,0.00
2012-8-15,67,62,60,62,58,56,92,86,74,29.79,29.23,0,-999,0,0.00
2012-8-16,66,61,58,58,57,54,96,86,73,29.84,29.43,0,-999,0,0.00
2012-8-17,65,62,59,63,60,57,100,95,78,29.77,29.60,0,-999,0,0.00
2012-8-18,71,63,60,63,59,53,100,88,53,30.01,29.74,0,-999,0,0.00
2012-8-19,66,61,59,60,58,54,100,90,76,30.06,29.97,0,-999,0,0.00
2012-8-20,72,63,59,60,58,53,97,83,57,30.09,29.99,0,-999,0,0.00
2012-8-21,67,61,58,60,56,50,96,84,55,30.09,29.86,0,-999,0,0.00
2012-8-22,67,61,58,56,54,51,88,78,56,30.02,29.91,0,-999,0,0.00
2012-8-23,63,60,57,57,54,51,93,80,65,30.01,29.78,0,-999,0,0.00
2012-8-24,64,59,56,57,55,51,95,87,62,29.79,29.46,0,-999,0,0.00
2012-8-25,63,59,56,58,55,50,97,87,67,29.85,29.45,0,-999,0,0.00
2012-8-26,63,58,52,57,53,50,92,81,67,30.04,29.85,0,-999,0,0.00
2012-8-27,68,60,59,60,58,54,98,90,66,29.94,29.51,0,-999,0,0.00
2012-8-28,65,60,56,57,52,47,90,77,51,29.88,29.67,0,-999,0,0.00
2012-8-29,63,59,54,58,54,48,98,82,68,29.76,29.58,0,-999,0,0.00
2012-8-30,61,57,53,56,48,43,91,70,54,30.40,29.72,0,-999,0,0.00
2012-8-31,63,58,53,56,50,45,93,73,61,30.45,30.33,0,-999,0,0.00
2012-9-1,67,61,58,57,54,52,89,78,58,30.35,30.13,0,-999,0,0.00
2012-9-2,60,60,60,58,58,58,93,93,93,30.17,30.17,0,-999,0,0.00
2012-9-3,71,64,59,60,58,57,94,80,63,30.35,30.18,0,-999,0,0.00
2012-9-4,64,60,59,61,53,45,100,77,51,30.40,30.19,0,-999,0,0.00
2012-9-5,61,57,51,52,50,48,89,76,67,30.47,30.35,0,-999,0,0.00
2012-9-6,71,60,53,58,52,47,91,76,51,30.44,30.19,0,-999,0,0.00
2012-9-7,68,61,58,60,57,54,96,87,75,30.29,30.15,0,-999,0,0.00
2012-9-8,67,60,58,61,56,52,100,88,70,30.25,29.91,0,-999,0,0.00
2012-9-9,68,61,54,60,57,49,97,86,66,29.94,29.57,0,-999,0,0.00
2012-9-10,61,58,53,59,55,48,96,89,80,29.77,29.63,0,-999,0,0.00
2012-9-11,58,54,49,49,45,41,84,72,58,30.02,29.71,0,-999,0,0.00
2012-9-12,60,56,53,55,48,40,87,74,52,30.14,29.87,0,-999,0,0.00
2012-9-13,64,57,49,56,50,42,87,75,61,30.17,30.10,0,-999,0,0.00
2012-9-14,63,59,56,55,50,46,85,72,55,0.00,40.00,0,-999,0,0.00
2012-9-15,62,58,54,53,51,49,86,76,67,29.96,29.93,0,-999,0,0.00
2012-9-16,61,58,55,59,52,44,97,80,52,29.93,29.71,0,-999,0,0.00
2012-9-17,58,56,53,50,48,46,79,74,66,0.00,40.00,0,-999,0,0.00
2012-9-18,56,53,47,48,44,40,86,72,59,0.00,40.00,0,-999,0,0.00
2012-9-19,55,51,46,46,44,41,83,76,69,0.00,40.00,0,-999,0,0.00
2012-9-20,60,58,57,52,51,50,80,76,72,30.04,29.99,0,-999,0,0.00
2012-9-21,58,53,49,53,46,39,93,75,59,30.16,29.98,0,-999,0,0.00
2012-9-22,56,52,44,44,40,36,87,64,46,30.20,30.06,0,-999,0,0.00
2012-9-23,56,53,47,49,43,-100,82,73,62,30.09,29.50,0,-999,0,0.00
2012-9-24,54,52,49,52,49,46,96,92,81,29.50,29.11,0,-999,0,0.00
2012-9-25,54,52,49,51,49,47,95,88,79,29.12,28.94,0,-999,0,0.00
2012-9-26,58,55,52,52,50,47,93,82,69,29.69,28.96,0,-999,0,0.00
2012-9-27,58,54,48,52,47,44,88,79,63,29.85,29.67,0,-999,0,0.00
2012-9-28,59,56,52,53,48,43,90,76,60,29.93,29.72,0,-999,0,0.00
2012-9-29,58,54,47,52,45,40,85,72,62,30.11,29.91,0,-999,0,0.00
2012-9-30,61,58,56,58,53,47,95,81,67,30.01,29.75,0,-999,0,0.00
2012-10-1,59,56,53,54,48,44,90,76,65,29.81,29.65,0,-999,0,0.00
2012-10-2,58,55,51,51,47,44,83,74,67,29.75,29.43,0,-999,0,0.00
2012-10-3,55,52,48,46,44,41,84,74,64,29.63,29.49,0,-999,0,0.00
2012-10-4,55,52,45,48,45,42,94,78,65,29.77,29.59,0,-999,0,0.00
2012-10-5,55,52,49,49,44,42,84,74,65,29.83,29.54,0,-999,0,0.00
2012-10-6,56,54,51,48,46,45,88,75,66,30.12,29.83,0,-999,0,0.00
2012-10-7,56,53,46,46,43,39,82,69,54,30.26,30.10,0,-999,0,0.00
2012-10-8,55,53,51,51,47,44,90,80,69,30.13,29.96,0,-999,0,0.00
2012-10-9,56,52,46,50,47,42,89,81,70,30.06,29.98,0,-999,0,0.00
2012-10-10,58,54,47,56,49,44,98,85,68,30.03,29.70,0,-999,0,0.00
2012-10-11,58,54,51,56,51,43,98,89,74,29.75,29.40,0,-999,0,0.00
2012-10-12,54,50,44,49,42,39,90,75,57,29.74,29.54,0,-999,0,0.00
2012-10-13,53,48,41,45,42,38,90,77,56,29.72,29.63,0,-999,0,0.00
2012-10-14,51,48,45,43,42,40,86,79,65,29.67,29.61,0,-999,0,0.00
2012-10-15,54,51,48,49,45,42,94,81,66,29.58,29.28,0,-999,0,0.00
2012-10-16,54,50,44,48,42,40,88,74,59,29.54,29.06,0,-999,0,0.00
2012-10-17,58,54,50,49,47,44,94,79,71,29.41,29.05,0,-999,0,0.00
2012-10-18,56,54,52,51,49,46,87,82,74,29.57,29.14,0,-999,0,0.00
2012-10-19,56,53,48,52,50,46,96,88,79,29.81,29.59,0,-999,0,0.00
2012-10-20,58,55,52,52,48,39,92,79,54,30.03,29.76,0,-999,0,0.00
2012-10-21,59,54,51,52,49,45,93,82,60,30.15,30.03,0,-999,0,0.00
2012-10-22,56,53,49,53,50,46,91,88,79,30.26,30.13,0,-999,0,0.00
2012-10-23,57,55,53,55,54,52,100,95,91,30.36,30.22,0,-999,0,0.00
2012-10-24,57,56,54,55,53,52,97,92,85,30.30,30.07,0,-999,0,0.00
2012-10-25,55,53,52,52,48,42,94,84,69,30.12,30.03,0,-999,0,0.00
2012-10-26,50,46,40,41,35,25,75,64,48,30.16,30.03,0,-999,0,0.00
2012-10-27,48,44,37,38,32,25,73,62,48,30.33,30.06,0,-999,0,0.00
2012-10-28,50,49,47,45,44,41,89,83,75,0.00,40.00,0,-999,0,0.00
2012-10-29,51,48,43,47,43,39,97,83,69,0.00,40.00,0,-999,0,0.00
2012-10-30,51,48,42,45,42,38,88,78,66,29.77,29.30,0,-999,0,0.00
2012-10-31,52,47,42,44,41,36,89,79,72,29.28,28.86,0,-999,0,0.00
2012-11-1,49,44,36,40,37,33,95,77,60,29.00,28.80,0,-999,0,0.00
2012-11-2,50,46,42,41,38,34,83,73,60,29.29,28.99,0,-999,0,0.00
2012-11-3,49,45,39,39,34,31,77,66,49,29.34,29.21,0,-999,0,0.00
2012-11-4,50,48,45,41,39,35,82,69,61,29.44,29.14,0,-999,0,0.00
2012-11-5,50,46,39,43,39,35,85,76,62,30.10,29.47,0,-999,0,0.00
2012-11-6,53,49,45,47,43,40,92,80,67,30.27,30.05,0,-999,0,0.00
2012-11-7,54,51,49,49,45,42,91,78,72,30.28,30.07,0,-999,0,0.00
2012-11-8,52,50,47,46,45,42,90,81,71,30.13,29.90,0,-999,0,0.00
2012-11-9,53,50,47,50,45,40,94,81,69,29.90,29.47,0,-999,0,0.00
2012-11-10,50,47,43,43,39,36,85,76,68,29.58,29.32,0,-999,0,0.00
2012-11-11,51,47,40,44,41,37,90,80,71,30.02,29.60,0,-999,0,0.00
2012-11-12,58,54,48,54,51,42,94,89,75,30.03,29.82,0,-999,0,0.00
2012-11-13,58,56,53,54,52,48,98,87,69,30.13,29.93,0,-999,0,0.00
2012-11-14,55,54,51,52,49,45,94,84,70,30.26,30.13,0,-999,0,0.00
2012-11-15,54,52,50,51,47,44,94,83,72,30.27,30.05,0,-999,0,0.00
2012-11-16,51,48,46,47,44,42,94,85,78,30.03,29.75,0,-999,0,0.00
2012-11-17,49,45,41,46,40,35,95,80,62,29.86,29.66,0,-999,0,0.00
2012-11-18,51,46,40,48,38,34,89,74,59,29.92,29.52,0,-999,0,0.00
2012-11-19,55,53,50,53,49,45,98,86,69,29.61,29.31,0,-999,0,0.00
2012-11-20,55,53,48,54,47,37,97,82,58,29.67,29.35,0,-999,0,0.00
2012-11-21,54,51,49,50,44,40,89,76,66,29.75,29.63,0,-999,0,0.00
2012-11-22,56,50,45,51,44,36,91,80,67,29.68,29.32,0,-999,0,0.00
2012-11-23,50,47,43,41,39,36,77,72,62,29.94,29.53,0,-999,0,0.00
2012-11-24,48,45,38,44,38,32,92,76,55,29.98,29.47,0,-999,0,0.00
2012-11-25,49,44,35,44,38,34,94,82,55,29.63,29.38,0,-999,0,0.00
2012-11-26,48,45,43,43,40,37,94,83,71,29.87,29.39,0,-999,0,0.00
2012-11-27,48,44,40,40,37,34,85,75,69,30.13,29.68,0,-999,0,0.00
2012-11-28,48,43,35,38,34,32,91,72,59,30.18,30.01,0,-999,0,0.00
2012-11-29,46,41,35,39,34,29,90,77,56,30.02,29.81,0,-999,0,0.00
2012-11-30,47,43,37,42,37,32,89,78,68,29.93,29.76,0,-999,0,0.00
2012-12-1,47,42,38,41,37,31,95,81,58,30.04,29.85,0,-999,0,0.00
2012-12-2,49,43,36,49,38,32,97,82,66,29.98,29.63,0,-999,0,0.00
2012-12-3,52,47,43,51,41,37,97,79,66,29.71,29.53,0,-999,0,0.00
2012-12-6,46,44,40,42,39,36,87,82,75,29.74,29.34,0,-999,0,0.00
2012-12-7,49,44,40,41,37,33,84,76,68,30.08,29.35,0,-999,0,0.00
2012-12-8,49,45,36,44,39,32,89,80,67,30.25,30.06,0,-999,0,0.00
2012-12-9,48,46,41,45,40,34,90,80,63,30.20,29.99,0,-999,0,0.00
2012-12-10,47,43,36,39,34,31,86,69,60,30.35,30.08,0,-999,0,0.00
2012-12-11,44,42,38,36,34,31,88,73,60,30.40,30.16,0,-999,0,0.00
2012-12-12,45,42,36,41,36,32,88,78,66,30.20,29.65,0,-999,0,0.00
2012-12-13,42,40,39,37,32,27,85,71,60,29.73,29.21,0,-999,0,0.00
2012-12-14,48,44,38,47,40,30,95,86,72,29.25,28.65,0,-999,0,0.00
2012-12-15,50,48,46,44,42,40,83,79,74,0.00,40.00,0,-999,0,0.00
2012-12-16,50,48,46,46,42,39,90,80,71,0.00,40.00,0,-999,0,0.00
2012-12-17,48,47,45,44,42,39,90,83,76,0.00,40.00,0,-999,0,0.00
2012-12-18,49,46,39,45,42,38,96,85,71,0.00,40.00,0,-999,0,0.00
2012-12-19,49,47,42,48,44,36,99,89,71,0.00,40.00,0,-999,0,0.00
2012-12-20,48,46,45,48,45,43,100,96,89,0.00,40.00,0,-999,0,0.00
2012-12-21,49,47,46,46,44,42,96,88,83,0.00,40.00,0,-999,0,0.00
2012-12-22,58,52,48,54,50,44,100,94,81,0.00,40.00,0,-999,0,0.00
2012-12-23,54,50,48,52,43,39,98,78,67,0.00,40.00,0,-999,0,0.00
2012-12-24,51,49,47,48,45,41,94,86,72,0.00,40.00,0,-999,0,0.00
2012-12-25,48,47,45,45,42,36,94,85,65,0.00,40.00,0,-999,0,0.00
2012-12-26,50,48,46,47,41,37,95,79,66,0.00,40.00,0,-999,0,0.00
2012-12-27,47,46,42,42,39,38,88,79,72,0.00,40.00,0,-999,0,0.00
2012-12-28,57,53,45,51,48,42,97,84,72,0.00,40.00,0,-999,0,0.00
2012-12-29,52,47,41,51,41,34,96,79,69,0.00,40.00,0,-999,0,0.00
2012-12-30,53,46,40,48,40,34,89,78,69,0.00,40.00,0,-999,0,0.00
2012-12-31,54,49,42,49,44,36,92,84,73,0.00,40.00,0,-999,0,0.00
2013-1-1,46,44,39,40,37,34,83,77,71,0.00,40.00,0,-999,0,0.00